| time (UTC) | temp F | wind direction | speed MPH | gust MPH | rain 1hr in | rain 24hr in | rain mn in | humidity % | barometer mb |
| 20260902003013 | 78 | 217 | 4.0 | 14.0 | 0.00 | 0.00 | 0.00 | 38 | 1008.7 |
| 20260902001512 | 77 | 229 | 4.0 | 11.0 | 0.00 | 0.00 | 0.00 | 36 | 1008.9 |
| 20260902000013 | 77 | 244 | 4.0 | 13.0 | 0.00 | 0.00 | 0.00 | 35 | 1008.9 |
| 20260901234507 | 80 | 238 | 5.0 | 12.0 | 0.00 | 0.00 | 0.00 | 35 | 1008.9 |
| 20260901233006 | 81 | 250 | 7.0 | 15.0 | 0.00 | 0.00 | 0.00 | 35 | 1009.0 |
| 20260901231503 | 81 | 214 | 4.0 | 13.0 | 0.00 | 0.00 | 0.00 | 35 | 1009.0 |
| 20260901230002 | 79 | 200 | 6.0 | 12.0 | 0.00 | 0.00 | 0.00 | 34 | 1009.2 |
| 20260901224600 | 80 | 256 | 5.0 | 13.0 | 0.00 | 0.00 | 0.00 | 34 | 1009.0 |
| 20260901223056 | 82 | 238 | 7.0 | 12.0 | 0.00 | 0.00 | 0.00 | 34 | 1008.9 |
| 20260901221601 | 83 | 232 | 6.0 | 14.0 | 0.00 | 0.00 | 0.00 | 34 | 1009.1 |
| 20260901220056 | 83 | 248 | 6.0 | 13.0 | 0.00 | 0.00 | 0.00 | 35 | 1009.2 |
| 20260901214548 | 82 | 228 | 3.0 | 14.0 | 0.00 | 0.00 | 0.00 | 35 | 1009.2 |
| 20260901213045 | 81 | 278 | 9.0 | 15.0 | 0.00 | 0.00 | 0.00 | 35 | 1009.5 |
| 20260901211543 | 83 | 285 | 5.0 | 14.0 | 0.00 | 0.00 | 0.00 | 36 | 1009.6 |
| 20260901210039 | 83 | 207 | 4.0 | 19.0 | 0.00 | 0.00 | 0.00 | 37 | 1009.7 |
| 20260901204536 | 82 | 224 | 8.0 | 15.0 | 0.00 | 0.00 | 0.00 | 38 | 1009.8 |
| 20260901203032 | 82 | 239 | 9.0 | 19.0 | 0.00 | 0.00 | 0.00 | 39 | 1010.1 |
| 20260901201528 | 81 | 191 | 6.0 | 15.0 | 0.00 | 0.00 | 0.00 | 40 | 1010.1 |
| 20260901200025 | 82 | 236 | 7.0 | 16.0 | 0.00 | 0.00 | 0.00 | 41 | 1010.5 |
| 20260901194521 | 82 | 217 | 4.0 | 12.0 | 0.00 | 0.00 | 0.00 | 42 | 1010.5 |
| 20260901193018 | 81 | 262 | 4.0 | 14.0 | 0.00 | 0.00 | 0.00 | 44 | 1010.8 |
| 20260901191527 | 81 | 212 | 5.0 | 12.0 | 0.00 | 0.00 | 0.00 | 46 | 1010.8 |
| 20260901190011 | 81 | 225 | 2.0 | 11.0 | 0.00 | 0.00 | 0.00 | 49 | 1011.1 |
| 20260901184507 | 79 | 210 | 5.0 | 9.0 | 0.00 | 0.00 | 0.00 | 52 | 1011.2 |
| 20260901183002 | 76 | 106 | 1.0 | 6.0 | 0.00 | 0.00 | 0.00 | 53 | 1011.4 |
| 20260901181606 | 75 | 20 | 0.0 | 3.0 | 0.00 | 0.00 | 0.00 | 54 | 1011.4 |
| 20260901180057 | 75 | 117 | 0.0 | 4.0 | 0.00 | 0.00 | 0.00 | 54 | 1011.5 |
| 20260901174555 | 75 | 146 | 1.0 | 5.0 | 0.00 | 0.00 | 0.00 | 54 | 1011.6 |
| 20260901173100 | 74 | 70 | 0.0 | 4.0 | 0.00 | 0.00 | 0.00 | 55 | 1011.8 |
| 20260901171601 | 74 | 70 | 2.0 | 7.0 | 0.00 | 0.00 | 0.00 | 55 | 1011.9 |
| 20260901170048 | 75 | 98 | 0.0 | 6.0 | 0.00 | 0.00 | 0.00 | 56 | 1011.9 |
| 20260901164546 | 74 | 243 | 0.0 | 3.0 | 0.00 | 0.00 | 0.00 | 58 | 1011.8 |
| 20260901163040 | 73 | 122 | 2.0 | 6.0 | 0.00 | 0.00 | 0.00 | 59 | 1011.8 |
| 20260901161549 | 73 | 72 | 1.0 | 4.0 | 0.00 | 0.00 | 0.00 | 60 | 1011.7 |
| 20260901160032 | 72 | 11 | 0.0 | 2.0 | 0.00 | 0.00 | 0.00 | 62 | 1011.6 |
| 20260901154525 | 71 | 140 | 0.0 | 4.0 | 0.00 | 0.00 | 0.00 | 65 | 1011.7 |
| 20260901153025 | 71 | 71 | 0.0 | 3.0 | 0.00 | 0.00 | 0.00 | 67 | 1011.8 |
| 20260901151520 | 70 | 211 | 1.0 | 3.0 | 0.00 | 0.00 | 0.00 | 70 | 1011.8 |
| 20260901150016 | 68 | 82 | 0.0 | 1.0 | 0.00 | 0.00 | 0.00 | 71 | 1011.9 |
| 20260901144510 | 66 | 115 | 0.0 | 2.0 | 0.00 | 0.00 | 0.00 | 72 | 1012.0 |
| 20260901143005 | 65 | 76 | 0.0 | 2.0 | 0.00 | 0.00 | 0.00 | 73 | 1011.9 |
| 20260901141558 | 63 | 77 | 0.0 | 3.0 | 0.00 | 0.00 | 0.00 | 73 | 1011.9 |
| 20260901140057 | 63 | 65 | 0.0 | 0.0 | 0.00 | 0.00 | 0.00 | 73 | 1011.9 |
| 20260901134551 | 60 | 324 | 0.0 | 0.0 | 0.00 | 0.00 | 0.00 | 72 | 1011.9 |
| 20260901133047 | 58 | 324 | 0.0 | 0.0 | 0.00 | 0.00 | 0.00 | 72 | 1011.8 |
| 20260901131544 | 57 | 323 | 0.0 | 0.0 | 0.00 | 0.00 | 0.00 | 72 | 1011.8 |
| 20260901130050 | 57 | 323 | 0.0 | 0.0 | 0.00 | 0.00 | 0.00 | 72 | 1011.5 |
| 20260901124541 | 58 | 323 | 0.0 | 0.0 | 0.00 | 0.00 | 0.00 | 72 | 1011.4 |
| 20260901123036 | 58 | 323 | 0.0 | 0.0 | 0.00 | 0.00 | 0.00 | 71 | 1011.3 |
| 20260901121536 | 58 | 324 | 0.0 | 0.0 | 0.00 | 0.00 | 0.00 | 71 | 1011.3 |
| 20260901120032 | 58 | 15 | 0.0 | 0.0 | 0.00 | 0.00 | 0.00 | 71 | 1011.3 |
| 20260901114529 | 59 | 15 | 0.0 | 0.0 | 0.00 | 0.00 | 0.00 | 71 | 1011.2 |
| 20260901113026 | 58 | 15 | 0.0 | 0.0 | 0.00 | 0.00 | 0.00 | 71 | 1011.2 |
| 20260901111523 | 58 | 15 | 0.0 | 0.0 | 0.00 | 0.00 | 0.00 | 70 | 1011.0 |
| 20260901110024 | 58 | 13 | 0.0 | 0.0 | 0.00 | 0.00 | 0.00 | 70 | 1011.0 |
| 20260901104517 | 57 | 300 | 0.0 | 0.0 | 0.00 | 0.00 | 0.00 | 69 | 1010.8 |
| 20260901103015 | 58 | 300 | 0.0 | 0.0 | 0.00 | 0.00 | 0.00 | 69 | 1010.9 |
| 20260901101511 | 58 | 300 | 0.0 | 0.0 | 0.00 | 0.00 | 0.00 | 69 | 1010.9 |
| 20260901100008 | 59 | 300 | 0.0 | 0.0 | 0.00 | 0.00 | 0.00 | 68 | 1010.8 |
| 20260901094506 | 59 | 300 | 0.0 | 0.0 | 0.00 | 0.00 | 0.00 | 68 | 1010.8 |
| 20260901093004 | 60 | 300 | 0.0 | 0.0 | 0.00 | 0.00 | 0.00 | 68 | 1010.9 |
| 20260901091607 | 60 | 240 | 0.0 | 0.0 | 0.00 | 0.00 | 0.00 | 68 | 1011.0 |
| 20260901090058 | 60 | 222 | 0.0 | 0.0 | 0.00 | 0.00 | 0.00 | 67 | 1010.9 |
| 20260901084555 | 59 | 222 | 0.0 | 0.0 | 0.00 | 0.00 | 0.00 | 67 | 1010.8 |
| 20260901083052 | 58 | 12 | 0.0 | 0.0 | 0.00 | 0.00 | 0.00 | 66 | 1010.8 |
| 20260901081547 | 59 | 12 | 0.0 | 0.0 | 0.00 | 0.00 | 0.00 | 66 | 1011.0 |
| 20260901080044 | 60 | 12 | 0.0 | 0.0 | 0.00 | 0.00 | 0.00 | 65 | 1011.1 |
| 20260901074545 | 61 | 328 | 0.0 | 1.0 | 0.00 | 0.00 | 0.00 | 65 | 1011.0 |
| 20260901073033 | 61 | 40 | 0.0 | 0.0 | 0.00 | 0.00 | 0.00 | 65 | 1010.9 |
| 20260901071528 | 62 | 40 | 0.0 | 0.0 | 0.00 | 0.00 | 0.00 | 65 | 1010.6 |
| 20260901070023 | 61 | 40 | 0.0 | 1.0 | 0.00 | 0.00 | 0.00 | 65 | 1010.6 |
| 20260901064522 | 62 | 40 | 0.0 | 0.0 | 0.00 | 0.00 | 0.00 | 65 | 1010.8 |
| 20260901063024 | 62 | 40 | 0.0 | 0.0 | 0.00 | 0.00 | 0.00 | 64 | 1010.7 |
| 20260901061519 | 62 | 40 | 0.0 | 0.0 | 0.00 | 0.00 | 0.00 | 64 | 1010.6 |
| 20260901060016 | 63 | 40 | 0.0 | 2.0 | 0.00 | 0.00 | 0.00 | 63 | 1010.6 |
| 20260901054512 | 62 | 44 | 0.0 | 1.0 | 0.00 | 0.00 | 0.00 | 63 | 1010.4 |
| 20260901053010 | 62 | 44 | 0.0 | 1.0 | 0.00 | 0.00 | 0.00 | 63 | 1010.4 |
| 20260901051507 | 63 | 44 | 0.0 | 0.0 | 0.00 | 0.00 | 0.00 | 62 | 1010.3 |
| 20260901050004 | 63 | 44 | 0.0 | 0.0 | 0.00 | 0.00 | 0.00 | 62 | 1010.2 |
| 20260901044505 | 64 | 44 | 0.0 | 1.0 | 0.00 | 0.00 | 0.00 | 61 | 1010.1 |
| 20260901043058 | 62 | 41 | 0.0 | 0.0 | 0.00 | 0.00 | 0.00 | 60 | 1010.0 |
| 20260901041600 | 64 | 42 | 0.0 | 0.0 | 0.00 | 0.00 | 0.00 | 60 | 1009.7 |
| 20260901040052 | 64 | 41 | 0.0 | 1.0 | 0.00 | 0.00 | 0.00 | 60 | 1009.4 |
| 20260901034546 | 65 | 252 | 0.0 | 1.0 | 0.00 | 0.00 | 0.00 | 60 | 1009.3 |
| 20260901033056 | 65 | 255 | 0.0 | 2.0 | 0.00 | 0.00 | 0.00 | 59 | 1009.2 |
| 20260901031538 | 66 | 113 | 0.0 | 1.0 | 0.00 | 0.00 | 0.00 | 58 | 1009.0 |
| 20260901030135 | 66 | 113 | 0.0 | 0.0 | 0.00 | 0.00 | 0.00 | 58 | 1008.5 |
| 20260901024534 | 67 | 113 | 0.0 | 1.0 | 0.00 | 0.00 | 0.00 | 57 | 1008.3 |
| 20260901023033 | 68 | 113 | 0.0 | 0.0 | 0.00 | 0.00 | 0.00 | 56 | 1008.2 |
| 20260901021539 | 69 | 113 | 0.0 | 1.0 | 0.00 | 0.00 | 0.00 | 56 | 1007.9 |
| 20260901020032 | 70 | 96 | 0.0 | 1.0 | 0.00 | 0.00 | 0.00 | 56 | 1007.9 |
| 20260901014526 | 71 | 177 | 0.0 | 6.0 | 0.00 | 0.00 | 0.00 | 56 | 1008.0 |
| 20260901013028 | 72 | 103 | 2.0 | 5.0 | 0.00 | 0.00 | 0.00 | 56 | 1007.9 |
| 20260901011522 | 71 | 115 | 2.0 | 6.0 | 0.00 | 0.00 | 0.00 | 56 | 1008.0 |
| 20260901010020 | 71 | 155 | 1.0 | 4.0 | 0.00 | 0.00 | 0.00 | 55 | 1007.9 |
| 20260901004518 | 71 | 138 | 1.0 | 6.0 | 0.00 | 0.00 | 0.00 | 55 | 1007.9 |